Regional Weather Roundup
Issued by NWS Pendleton, OR

Home | Current Version | Previous Version | Text Only | Print | Product List | Glossary On
Versions: 1 2 3 4 5 6 7 8 9 10 11 12 13 14 15 16 17 18 19 20 21 22 23 24 25 26 27 28 29 30 31 32 33 34 35 36 37 38 39 40 41 42 43 44 45 46 47 48 49 50
000
ASUS46 KPDT 292025
RWRPDT
PENDLETON REGIONAL WEATHER ROUNDUP
NATIONAL WEATHER SERVICE PENDLETON OREGON
100 PM PDT SUN MAR 29 2015

NOTE: FAIR INDICATES FEW OR NO CLOUDS BELOW 12,000 FEET WITH NO
SIGNIFICANT WEATHER AND/OR OBSTRUCTIONS TO VISIBILITY.

# INDICATES UNOFFICIAL STATION AND DATA

WAZ520-292110-
EAST SLOPES OF WASHINGTON CASCADES

CITY            SKY/WX      TMP DP  RH  WIND    PRES   REMARKS
#BUMPING DAM    N/A         48  N/A N/A S7      N/A
#CLE ELUM HS    N/A         55  36  49  SW3     30.16F
#CLE ELUM LAKE  N/A         53  38  57  CALM    30.21F
#CLIFFDEL 2NW   N/A         53  39  59  NW1     N/A
#GLENWOOD       N/A         61  41  48  S6      30.22F
#MANASTASH CYN  N/A         54  36  50  N2      30.16F
#NELSON         N/A         56  40  55  NW1     30.24F
#NELSON 3SW     N/A         51  39  63  CALM    30.45F
#NILE           N/A         57  38  49  W3      29.46F
#RONALD 2NW     N/A         53  38  57  W2      30.06F
#SNOWDEN        N/A         60  23  24  NW7     N/A
#TEANAWAY 4NE   N/A         56  43  62  SW3     N/A
#TROUT LAKE 1NE N/A         59  37  44  CALM    30.22F
$$

WAZ521-292110-
SIMCOE HIGHLANDS

CITY            SKY/WX      TMP DP  RH  WIND    PRES   REMARKS
#CENTERVILLE 4W N/A         60  41  49  NW12    29.96F
#CENTERVILLE 1SWN/A         60  38  44  W10     30.18F
#GOLDENDALE     N/A         58  38  47  W7      N/A
#GOLDENDALE 1NE N/A         59  27  29  SW3     N/A
#GOLDENDALE 5WNWN/A         60  38  44  W8      30.20F
#GOODNOE HILLS  N/A         64  42  45  W12     N/A
#LYLE 6NE       N/A         57  45  64  S3      30.20F
$$

WAZ026-292110-
KITTITAS VALLEY

CITY            SKY/WX      TMP DP  RH  WIND    PRES   REMARKS
ELLENSBURG AP   CLOUDY      60  37  42  NW15    30.20F
#ELLENSBURG CWU N/A         58  37  45  NW9     30.15
#ELLENSBURG 3NE N/A         56  39  53  N7      30.19F
#ELLENSBURG 1E  N/A         57  36  45  CALM    N/A
#KITTITAS 4N    N/A         59  41  51  NW3     28.50F
#KITTITAS 3S    N/A         57  39  51  W9      30.19F
#THORP 6N       N/A         53  38  57  W8      30.24F
$$

WAZ027-292110-
YAKIMA VALLEY

CITY            SKY/WX      TMP DP  RH  WIND    PRES   REMARKS
SUNNYSIDE AP    MOCLDY      63  36  36  S5      30.19F
YAKIMA AIRPORT  MOCLDY      63  38  39  VRB5    30.20F
YAKIMA-VAGABOND MOCLDY      59  38  45  W5      30.19F
#DONALD 2NE     N/A         71  27  19  CALM    29.03F
#GRANDVIEW      N/A         64  40  41  S3      30.20F
#MABTON         N/A         63  46  54  CALM    30.18F
#MOXEE 2E       N/A         60  20  21  N3      30.07F
#NACHES 2SW     N/A         58  44  60  E3      30.23S
#OUTLOOK DOT    N/A         N/A N/A N/A N1      N/A
#SELAH 8E       N/A         60  35  39  W5      N/A
#TERRACE HTS    N/A         61  39  44  S2      30.16F
#TOPPENISH      N/A         62  40  44  CALM    30.10F
#WAPATO 4NE     N/A         71  27  19  CALM    29.03F
#WEST VALLEY    N/A         58  40  51  CALM    30.18F
#W YAKIMA       N/A         60  40  47  CALM    30.19F
#WHITE SWAN 5E  N/A         61  45  56  NE3     30.18F
#WILEY CITY 3W  N/A         63  41  44  CALM    30.22F
$$

WAZ028-292110-
LOWER COLUMBIA BASIN...WASHINGTON

CITY            SKY/WX      TMP DP  RH  WIND    PRES   REMARKS
HANFORD         MOCLDY      65  38  37  E5      30.18F
PASCO           PTCLDY      67  37  33  SW6     30.21F
PROSSER AWOS    N/A         66  41  40  E5      30.21F
RICHLAND AWOS   PTCLDY      68  37  32  S12     30.20F
#BASIN CITY 5SW N/A         65  41  41  S7      30.20F
#BENTON CITY    N/A         65  39  38  SW8     30.11F
#CONNELL 5N     N/A         63  44  50  E5      30.20F
#CONNELL 5NW    N/A         61  45  56  SW8     30.16F
#ELTOPIA        N/A         69  44  40  SW3     30.16F
#ELTOPIA 6NW    N/A         63  38  39  S10     29.16F
#KAHLOTUS       N/A         61  40  46  NW16    30.21F
#KENNEWICK 3S   N/A         66  36  33  S3      30.22F
#PASCO-BROADMOORN/A         68  36  31  S3      30.10F
#PATERSON       N/A         62  42  48  SW6     30.20F
#PROSSER        N/A         63  39  41  SE7     30.19F
#SAGEMOOR 2W    N/A         64  43  46  E6      30.05F
#TOUCHET 2S     N/A         68  46  45  NW3     30.19F
#WEST PASCO     N/A         69  45  42  W2      30.24F
$$

WAZ029-292110-
FOOTHILLS OF THE BLUES...WASHINGTON

CITY            SKY/WX      TMP DP  RH  WIND    PRES   REMARKS
WALLA WALLA AP  PTCLDY      66  39  37  W12     30.21F
#DAYTON SCHOOL  N/A         63  33  32  SW5     30.22F
#LOWDEN 2SE     N/A         67  46  47  W2      30.18F
#PLEASANT VIEW 1N/A         61  41  48  S7      30.26F
#PRESCOTT       N/A         65  44  46  W2      30.21F
#SUDBURY        N/A         67  N/A N/A CALM    N/A
#WHITMAN COLLEGEN/A         63  41  44  SW3     30.25F
#WAITSBURG 5S   N/A         60  41  49  W9      30.32S
#WAITSBURG 8N   N/A         62  20  20  S6      30.03F
#WALLA WALLA 5E N/A         65  46  50  W9      N/A
#WALLA WALLA U  N/A         66  43  43  CALM    30.21F
#WHITMAN MISSIONN/A         66  46  48  NW3     30.22F
$$

WAZ030-292110-
BLUE MOUNTAINS...WASHINGTON

CITY            SKY/WX      TMP DP  RH  WIND    PRES   REMARKS
#DIXIE 5SE      N/A         59  37  44  W3      30.16S
$$

ORZ009-041-WAZ024-292110-
COLUMBIA RIVER GORGE

CITY            SKY/WX      TMP DP  RH  WIND    PRES   REMARKS
HOOD RIVER AP   PTCLDY      64  36  35  NW7     30.23F
THE DALLES AP   PTCLDY      64  42  45  CALM    30.22F
#ARLINGTON AIRPON/A         62  32  32  W12     29.98S
#CELILO DOT     N/A         60  40  47  SW6     N/A
#LYLE           N/A         63  45  52  N6      30.23F
#MOSIER 1S      N/A         64  35  34  N6      30.21F
#MURDOCK        N/A         61  48  62  NW5     30.23F
#RUFUS DOT      N/A         61  39  44  CALM    N/A

$$

ORZ510-292110-
NORTH CENTRAL OREGON

CITY            SKY/WX      TMP DP  RH  WIND    PRES   REMARKS
#CHENOWITH 1W   N/A         56  39  53  NW14    N/A
#COW CYN RST AREN/A         57  29  34  SW6     N/A
#DUFUR 9E       N/A         55  40  57  N1      30.27F
#GRASS VALLEY 1SN/A         62  35  36  W7      30.23F
#KENT DOT       N/A         61  27  27  NW7     N/A
#MAUPIN SCHOOL  N/A         65  37  35  E1      30.21F
#MORO SCHOOL    N/A         60  46  60  W3      30.22F
#SHANIKO 5WSW   N/A         57  21  24  SW10    N/A
#SHANIKO 4NW    N/A         57  26  30  W8      30.23F
#TYGH VALLEY 2NEN/A         63  42  46  E1      30.20F
#WAPANITIA AIRPON/A         65  34  31  E2      30.22F
#WASCO DOT      N/A         63  34  34  W6      N/A
#WASCO AIRPORT  N/A         59  36  42  W6      N/A
#WASCO 5NE      N/A         59  37  44  N3      30.23F
$$

ORZ511-292110-
CENTRAL OREGON

CITY            SKY/WX      TMP DP  RH  WIND    PRES   REMARKS
BEND AIRPORT    N/A         N/A N/A N/A MISG    N/A
MADRAS AIRPORT  PTCLDY      61  34  36  SE3     30.24F
PRINEVILLE AP   SUNNY       63  28  26  CALM    30.21F
REDMOND AIRPORT SUNNY       63  25  23  SW3     30.21F
#BEND 6E        N/A         64  27  24  CALM    30.13F
#BEND 1SW       N/A         65  35  33  SW3     N/A
#BEND-AWBREY    N/A         65  33  30  SW1     30.21F
#BEND-KIM LN    N/A         65  31  28  SW2     30.19F
#CULVER         N/A         63  29  28  CALM    30.18F
#LAKE BILLY CHINN/A         62   0   8  N6      30.22F
#MADRAS         N/A         60  35  39  E2      N/A
#POWELL BUTTE   N/A         68  39  35  N6      29.82F
#PRINEVILLE 3N  N/A         64  32  30  W2      30.18F
#WARM SPRINGS   N/A         66  38  36  N2      30.18F

$$


ORZ509-292110-
EAST SLOPES OF OREGON CASCADES

CITY            SKY/WX      TMP DP  RH  WIND    PRES   REMARKS
#BLUE BOX PASS  N/A         56   3  11  CALM    N/A
#CAMP SHERMAN   N/A         68  29  23  W2      30.22F
#LA PINE 4NW    N/A         59  33  37  CALM    30.31F
#LAVA BUTTE DOT N/A         64  27  24  SE2     N/A
#SISTERS AIRPOR N/A         62  38  41  N1      30.17S
#SISTERS ODOT   N/A         61  N/A N/A CALM    N/A
#SISTERS 1NW    N/A         60  27  28  E7      N/A
#SISTERS 3N     N/A         63  36  36  SE3     30.22F
#SUNRIVER       N/A         62  32  32  S3      30.14F
#TUMALO 3W      N/A         61  29  30  N3      30.10F
#WANOGA BUTTE D N/A         54  29  38  SE3     N/A

$$

ORZ044-292110-
LOWER COLUMBIA BASIN...OREGON

CITY            SKY/WX      TMP DP  RH  WIND    PRES   REMARKS
HERMISTON       PTCLDY      67  38  34  NW8     30.21F
#BOARDMAN SCHOOLN/A         67  38  34  W2      30.20F
#BOARDMAN 8SW   N/A         65  37  35  SW9     30.20F
#ECHO 8SW       N/A         67  41  39  NW3     30.18F
#IONE SCHOOL    N/A         63  41  44  NW7     30.19F
#IRRIGON 4NW    N/A         65  44  46  SW6     N/A
#UMATILLA       N/A         65  42  43  NW2     30.13F
$$

ORZ507-292110-
NORTHERN FOOTHILLS OF THE BLUES

CITY            SKY/WX      TMP DP  RH  WIND    PRES   REMARKS
PENDLETON AIRPT PTCLDY      64  41  43  NW10    30.20F
#ADAMS 3WNW     N/A         63  46  54  NW1     30.20F
#ATHENA         N/A         63  38  39  W2      30.23F
#CAYUSE         N/A         63  40  43  W6      30.20F
#HELIX SCHOOL   N/A         63  38  39  SW6     30.22F
#HELIX 3N       N/A         62  37  39  W7      30.17F
#HELIX 6SW      N/A         61  39  44  N2      30.20F
#HOLDMAN 5SE    N/A         63  41  44  W2      30.21F
#HOLDMAN 6E     N/A         62  37  39  NE3     30.03F
#M-F FERNDALE   N/A         70  43  38  CALM    30.19F
#M-F GROVE ELEM N/A         67  33  28  W6      30.18F
#M-FREEWATER 5SEN/A         68  43  40  W7      30.19F
#PENDLETON DNTN N/A         69  39  33  NW2     30.19F
#PDT AQUATIC CTRN/A         67  46  47  W5      30.19F
#PENDLETON 5NE  N/A         64  43  46  N1      30.16F
#PDT SUNRIDGE   N/A         65  40  40  NW2     30.21F
#PENDLETON 7NW  N/A         68  47  47  W5      28.06S
#TUTUILLA       N/A         65  36  34  N2      30.21F
#UMAPINE 2E     N/A         67  48  50  NW3     30.17F
#WESTON SCHOOL  N/A         63  33  32  NW1     30.19F

$$

ORZ508-292110-
SOUTHERN FOOTHILLS OF THE BLUES

CITY            SKY/WX      TMP DP  RH  WIND    PRES   REMARKS
LEXINGTON       MOSUNNY     66  37  34  NW9     30.22F
#AJAX           N/A         62  33  34  S5      30.14F
#CONDON SCHOOL  N/A         60  32  35  CALM    30.17F
#CONDON 5W      N/A         57  29  34  W10     30.20F
#FOSSIL SCHOOL  N/A         62  31  31  W8      30.18S
#HEPPNER EOC    N/A         63  36  36  NW3     30.16F
#HEPPNER 4NE    N/A         60  34  37  N6      30.22F
#LEXINGTON 2SE  N/A         66  39  37  N12     30.16F
#MIKKALO        N/A         61  39  44  NW12    30.20F
#OLEX 4N        N/A         61  42  50  W9      30.20F
#RUGGS 5NE      N/A         64  35  34  NW8     30.36F
#RUGGS 2SW      N/A         63  33  32  NW1     30.23F

$$

ORZ502-503-292110-
BLUE MOUNTAINS

CITY            SKY/WX      TMP DP  RH  WIND    PRES   REMARKS
MEACHAM         SUNNY       60  27  28  VRB5    30.23F
#BATTLE MTN DOT N/A         57  34  42  S7      N/A
#HEPPNER 15SE   N/A         58  31  36  N2      30.14F
#LADD CYN SMT   N/A         55  26  32  E12     N/A
#LADD CREEK ODOTN/A         61  34  36  S5      N/A
#LONG CREEK HS  N/A         59  33  37  CALM    30.19F
#N POWDER DOT   N/A         60  34  37  N1      N/A
#PIKES PEAK     N/A         54  35  48  SW14    27.99S
#TOLLGATE       N/A         51  31  46  NE5     30.18F
#TROY SCHOOL    N/A         68  39  35  S6      30.06F
#UKIAH          N/A         61  34  36  S3      30.29F
#WESTON 4E      N/A         59  32  36  SW7     30.19F
$$

ORZ505-292110-
JOHN DAY BASIN

CITY            SKY/WX      TMP DP  RH  WIND    PRES   REMARKS
JOHN DAY        SUNNY       63  31  30  CALM    30.24F
#JOHN DAY KJDY  N/A         62  49  62  N1      30.17F
#DAYVILLE SCHOOLN/A         62  33  34  E1      30.18F
#MITCHELL       N/A         63  40  43  W2      30.32F
#MONUMENT HS    N/A         62  35  36  CALM    30.21F
#MT. VERNON 5SE N/A         57  32  38  N2      30.20F
#WINLOCK        N/A         65  34  31  E7      30.29F
$$

ORZ506-292110-
OCHOCO AND JOHN DAY HIGHLANDS

CITY            SKY/WX      TMP DP  RH  WIND    PRES   REMARKS
#BUCK CREEK DOT N/A         62  62  100 SE7     N/A
#HORSE RIDGE DO N/A         63  20  19  SE7     N/A
#KEYES SMT DOT  N/A         61  31  32  CALM    N/A
#PAULINA SCHOOL N/A         69  35  28  CALM    30.19F
#PINE MTN OBS   N/A         52  24  33  S9      N/A
#PRAIRIE CITY   N/A         60  27  28  SW2     30.17F
#SENECA         N/A         57  N/A N/A N5      N/A
#SENECA 9NW     N/A         58  28  32  CALM    30.29F
$$

ORZ049-292110-
GRANDE RONDE VALLEY

CITY            SKY/WX      TMP DP  RH  WIND    PRES   REMARKS
LA GRANDE       SUNNY       63  34  34  E5      30.22F
#COVE           N/A         60  44  55  CALM    30.22F
#COVE SCHOOL    N/A         62  39  43  CALM    30.19F
#ELGIN 3N       N/A         59  36  42  S7      30.19F
#ELGIN 1E       N/A         61  39  44  W5      N/A
#IMBLER SCHOOL  N/A         59  39  47  S7      30.17F
#ISLAND CITY 4N N/A         59  48  67  E1      30.26F
#LADD CYN DOT   N/A         59  32  36  SE12    N/A
#UNION 1S       N/A         61  36  39  S7      30.16F
$$

ORZ050-292110-
WALLOWA COUNTY

CITY            SKY/WX      TMP DP  RH  WIND    PRES   REMARKS
JOSEPH AIRPORT  SUNNY       59  25  27  N5      30.25F
#ENTERPRISE HS  N/A         58  37  45  W7      30.21F
#IMNAHA 10S     N/A         64  33  31  N1      30.19F
#JOSEPH 3N      N/A         56  34  43  NW2     30.23F
#JOSEPH 3W      N/A         55  23  29  CALM    30.07F
#LOSTINE        N/A         57  35  43  CALM    30.08F
#MT HOWARD 8000 N/A         42  24  48  W2      30.31R
#PROMISE 1S     N/A         56  33  42  E5      30.35F
#SHEEP RDG 7000 N/A         42  26  53  CALM    30.34F
#WALLOWA SCHOOL N/A         58  36  44  CALM    31.23F



$$



USA.gov is the U.S. government's official web portal to all federal, state and local government web resources and services.